Weather History for Poplar Bluff, MO

Change the Weather History Date:

Friday, January 11, 2013

  Actual Average Record
Temperature  
Mean Temperature 56 °F -  
Max Temperature 63 °F 38 °F 77 °F (1928)
Min Temperature 48 °F 19 °F -13 °F (1977)
Degree Days  
Heating Degree Days 10    
Growing Degree Days 6 (Base 50)    
Moisture  
Dew Point 51 °F    
Average Humidity 81    
Maximum Humidity 90    
Minimum Humidity 63    
Precipitation  
Precipitation 0.00 in - - ()
Sea Level Pressure  
Sea Level Pressure 29.91 in    
Wind  
Wind Speed 11 mph (SSW)    
Max Wind Speed 16 mph    
Max Gust Speed 21 mph    
Visibility 10 miles    
Events      
Averages and records for this station are not official NWS values.
T = Trace of Precipitation, MM = Missing Value Source: NWS Daily Summary

Daily Weather History Graph

Daily Weather History Graph

Search for Another Location

Airport:

Trip Planner

Search our weather history database for the weather conditions in past years. The results will help you decide how hot, cold, wet, or windy it might be!

Date:

Astronomy

Jan. 11, 2013 Rise Set
Actual Time 7:13 AM CST 5:05 PM CST
Civil Twilight 6:45 AM CST 5:33 PM CST
Nautical Twilight 6:13 AM CST 6:05 PM CST
Astronomical Twilight 5:42 AM CST 6:36 PM CST
Moon 6:48 AM CST (1/11) 5:21 PM CST (1/11)
Length of Visible Light 10h 48m
Length of Day
9h 51m
Waning Crescent, 0% of the Moon is Illuminated
Jan 11
Waning Crescent
Jan 11
New
Jan 18
First Quarter
Jan 26
Full
Feb 3
Last Quarter

Hourly Weather History & Observations

Time (CST) Temp. Dew Point Humidity Pressure Visibility Wind Dir Wind Speed Gust Speed Precip Events Conditions
12:40 AM 59.0 °F 55.4 °F 88% 29.86 in 10.0 mi SW 13.8 mph - N/A   Mostly Cloudy
12:50 AM 59.0 °F 55.4 °F 88% 29.86 in 10.0 mi SW 11.5 mph - N/A   Scattered Clouds
12:53 AM 59.0 °F 55.9 °F 90% 29.86 in 10.0 mi SW 10.4 mph - N/A   Mostly Cloudy
1:08 AM 59.0 °F 55.4 °F 88% 29.86 in 10.0 mi SW 12.7 mph 20.7 mph N/A   Mostly Cloudy
1:15 AM 59.0 °F 55.4 °F 88% 29.86 in 10.0 mi SSW 12.7 mph 20.7 mph N/A   Mostly Cloudy
1:28 AM 59.0 °F 55.4 °F 88% 29.87 in 10.0 mi SSW 12.7 mph 19.6 mph N/A   Mostly Cloudy
1:51 AM 60.8 °F 55.4 °F 82% 29.87 in 10.0 mi SW 12.7 mph - N/A   Overcast
1:53 AM 60.1 °F 55.9 °F 86% 29.88 in 10.0 mi SW 15.0 mph - N/A   Overcast
2:53 AM 57.0 °F 54.0 °F 89% 29.89 in 10.0 mi SSW 10.4 mph - N/A   Partly Cloudy
3:53 AM 55.0 °F 52.0 °F 89% 29.89 in 10.0 mi SSW 8.1 mph - N/A   Clear
4:53 AM 53.1 °F 48.9 °F 86% 29.90 in 10.0 mi SSW 6.9 mph - N/A   Clear
5:53 AM 52.0 °F 48.0 °F 86% 29.93 in 10.0 mi SW 6.9 mph - N/A   Clear
6:53 AM 48.9 °F 45.0 °F 86% 29.94 in 10.0 mi SSW 5.8 mph - N/A   Clear
7:53 AM 50.0 °F 46.9 °F 89% 29.96 in 10.0 mi South 3.5 mph - N/A   Clear
8:53 AM 53.1 °F 48.9 °F 86% 29.98 in 10.0 mi SSW 11.5 mph - N/A   Clear
9:53 AM 55.0 °F 48.9 °F 80% 29.97 in 10.0 mi SSW 16.1 mph - N/A   Clear
10:53 AM 57.0 °F 48.9 °F 74% 29.97 in 10.0 mi SSW 12.7 mph - N/A   Partly Cloudy
11:13 AM 57.2 °F 50.0 °F 77% 29.96 in 10.0 mi SSW 15.0 mph - N/A   Mostly Cloudy
11:25 AM 59.0 °F 50.0 °F 72% 29.96 in 10.0 mi SSW 13.8 mph - N/A   Scattered Clouds
11:53 AM 59.0 °F 48.9 °F 69% 29.94 in 10.0 mi SSW 13.8 mph - N/A   Scattered Clouds
12:53 PM 60.1 °F 50.0 °F 69% 29.91 in 10.0 mi South 12.7 mph - N/A   Partly Cloudy
2:53 PM 63.0 °F 50.0 °F 63% 29.89 in 10.0 mi South 13.8 mph - N/A   Clear
3:53 PM 63.0 °F 51.1 °F 65% 29.89 in 10.0 mi South 11.5 mph - N/A   Clear
4:53 PM 61.0 °F 48.9 °F 64% 29.89 in 10.0 mi South 13.8 mph - N/A   Clear
5:53 PM 57.9 °F 50.0 °F 75% 29.90 in 10.0 mi South 9.2 mph - N/A   Clear
6:53 PM 55.9 °F 48.9 °F 77% 29.91 in 10.0 mi South 9.2 mph - N/A   Clear
7:53 PM 55.0 °F 48.9 °F 80% 29.91 in 10.0 mi South 6.9 mph - N/A   Clear
8:53 PM 55.9 °F 48.9 °F 77% 29.91 in 10.0 mi SSW 8.1 mph - N/A   Clear
9:53 PM 54.0 °F 48.0 °F 80% 29.90 in 10.0 mi SSW 5.8 mph - N/A   Clear
10:53 PM 54.0 °F 48.9 °F 83% 29.90 in 10.0 mi SSW 5.8 mph - N/A   Clear
11:53 PM 53.1 °F 48.9 °F 86% 29.90 in 10.0 mi South 5.8 mph - N/A   Clear